CW3185 Weather Reports


time (UTC)temp
C
wind
direction
speed
KPH
gust
KPH
rain 1hr
cm
rain 24hr
cm
rain mn
cm
humidity
%
barometer
mb
20260507093504 11 127 0.0 0.0 0.00 0.00 0.00 70 1012.4
20260507093004 11 301 0.0 0.0 0.00 0.00 0.00 71 1012.4
20260507090005 11 121 0.0 0.0 0.00 0.00 0.00 71 1012.4
20260507083504 10 98 0.0 0.0 0.00 0.00 0.00 71 1012.5
20260507083004 10 169 0.0 0.0 0.00 0.00 0.00 70 1012.5
20260507073504 8 123 0.0 0.0 0.00 0.00 0.00 73 1012.8
20260507073005 8 162 0.0 0.0 0.00 0.00 0.00 75 1012.8
20260507070504 8 202 0.0 0.0 0.00 0.00 0.00 77 1012.8
20260507070009 8 219 0.0 0.0 0.00 0.00 0.00 77 1012.8
20260507063504 7 194 0.0 0.0 0.00 0.00 0.00 82 1012.8
20260507060004 6 222 0.0 0.0 0.00 0.00 0.00 81 1012.7
20260507053504 6 228 0.0 0.0 0.00 0.00 0.00 81 1012.8
20260507050504 6 222 0.0 0.0 0.00 0.00 0.00 80 1012.9
20260507043504 6 213 0.0 0.0 0.00 0.00 0.00 78 1012.9
20260507043005 6 223 0.0 0.0 0.00 0.00 0.00 79 1012.9
20260507040504 6 226 0.0 0.0 0.00 0.00 0.00 79 1012.8
20260507040004 6 226 0.0 0.0 0.00 0.00 0.00 79 1012.9
20260507033504 6 226 0.0 0.0 0.00 0.00 0.00 79 1012.9
20260507033004 6 226 0.0 0.0 0.00 0.00 0.00 79 1012.9
20260507030504 6 195 0.0 0.0 0.00 0.00 0.00 78 1013.0
20260507030004 6 195 0.0 0.0 0.00 0.00 0.00 78 1013.0
20260507023505 6 275 0.0 0.0 0.00 0.00 0.00 78 1013.2
20260507023004 6 275 0.0 0.0 0.00 0.00 0.00 78 1013.3
20260507020504 6 214 0.0 0.0 0.00 0.00 0.00 78 1013.3
20260507020004 6 234 0.0 0.0 0.00 0.00 0.00 78 1013.3
20260507013505 6 178 0.0 0.0 0.00 0.00 0.00 76 1013.4
20260507013005 6 261 0.0 0.0 0.00 0.00 0.00 76 1013.4
20260507010504 6 172 0.0 0.0 0.00 0.00 0.00 75 1013.5
20260507010005 6 182 0.0 0.0 0.00 0.00 0.00 75 1013.5
20260507003505 7 112 0.0 0.0 0.00 0.00 0.00 74 1013.5
20260507003005 7 159 0.0 0.0 0.00 0.00 0.00 74 1013.6
20260507000505 7 238 0.0 0.0 0.00 0.00 0.00 73 1013.9
20260507000005 7 227 0.0 0.0 0.00 0.00 0.00 73 1013.9
20260506230504 7 157 0.0 0.0 0.00 0.00 0.00 73 1014.0
20260506223505 7 203 0.0 0.0 0.00 0.00 0.00 73 1014.1
20260506223005 7 290 0.0 0.0 0.00 0.00 0.00 73 1014.0
20260506220504 7 241 0.0 0.0 0.00 0.00 0.00 74 1014.1
20260506220005 7 232 0.0 8.0 0.00 0.00 0.00 74 1014.1
20260506213004 7 218 0.0 0.0 0.00 0.00 0.00 76 1014.2
20260506210504 7 215 0.0 0.0 0.00 0.00 0.00 77 1014.2
20260506210005 7 223 0.0 0.0 0.00 0.00 0.00 76 1014.3
20260506203004 7 238 1.6 4.8 0.00 0.00 0.00 76 1014.4
20260506200005 7 234 0.0 0.0 0.00 0.00 0.00 73 1014.4
20260506193004 7 267 0.0 0.0 0.00 0.00 0.00 70 1014.4
20260506190505 8 237 0.0 0.0 0.00 0.00 0.00 68 1014.4
20260506190005 8 275 0.0 0.0 0.00 0.00 0.00 67 1014.4
20260506183503 8 306 0.0 0.0 0.00 0.00 0.00 62 1014.4
20260506180504 9 81 0.0 0.0 0.00 0.00 0.00 58 1014.2
20260506180005 9 78 0.0 0.0 0.00 0.00 0.00 58 1014.1
20260506173504 9 103 0.0 0.0 0.00 0.00 0.00 55 1014.3
20260506173004 9 89 0.0 0.0 0.00 0.00 0.00 56 1014.2
20260506170616 10 80 0.0 0.0 0.00 0.00 0.00 55 1014.4
20260506170116 10 106 0.0 11.3 0.00 0.00 0.00 55 1014.4
20260506163616 10 108 0.0 0.0 0.00 0.00 0.00 54 1014.3
20260506163116 10 100 0.0 0.0 0.00 0.00 0.00 53 1014.4
20260506160615 10 306 0.0 1.6 0.00 0.00 0.00 54 1014.5
20260506160116 10 55 0.0 12.9 0.00 0.00 0.00 55 1014.5
20260506150616 11 117 0.0 0.0 0.00 0.00 0.00 54 1015.0
20260506150116 11 81 0.0 4.8 0.00 0.00 0.00 55 1015.0
20260506143615 11 100 0.0 0.0 0.00 0.00 0.00 57 1015.0
20260506143116 11 39 0.0 0.0 0.00 0.00 0.00 57 1015.0
20260506140615 11 236 0.0 0.0 0.00 0.00 0.00 55 1015.5
20260506133616 11 220 0.0 0.0 0.00 0.00 0.00 60 1015.5
20260506133115 10 302 0.0 0.0 0.00 0.00 0.00 60 1015.6
20260506130615 10 134 0.0 0.0 0.00 0.00 0.00 60 1015.6
20260506130116 10 71 0.0 4.8 0.00 0.00 0.00 59 1015.8
20260506123116 10 231 0.0 3.2 0.00 0.00 0.00 58 1015.8
20260506120615 12 73 1.6 8.0 0.00 0.00 0.00 55 1015.7
20260506120115 11 107 0.0 8.0 0.00 0.00 0.00 59 1015.9
20260506113615 12 202 0.0 0.0 0.00 0.00 0.00 57 1016.0
20260506113115 12 63 0.0 0.0 0.00 0.00 0.00 56 1016.0
20260506110615 10 339 0.0 0.0 0.00 0.00 0.00 58 1016.2
20260506110115 10 293 0.0 0.0 0.00 0.00 0.00 61 1016.1
20260506103615 10 94 0.0 0.0 0.00 0.00 0.00 61 1016.3
20260506103116 10 249 0.0 4.8 0.00 0.00 0.00 61 1016.4
20260506100615 10 225 0.0 0.0 0.00 0.00 0.00 56 1016.6
20260506100115 10 256 0.0 0.0 0.00 0.00 0.00 58 1016.6